DW8397 Weather Reports


Display with metric or nautical units.
time (UTC)temp
F
wind
direction
speed
MPH
gust
MPH
rain 1hr
in
rain 24hr
in
rain mn
in
humidity
%
barometer
mb
20260504173152 59 207 11.0 23.0 0.00 0.00 0.00 48 1006.8
20260504171552 60 200 9.0 18.0 0.00 0.00 0.00 48 1006.8
20260504081539 44 186 2.0 7.0 0.00 0.00 0.00 80 1008.2
20260504050016 43 202 5.0 10.0 0.00 0.00 0.00 70 1009.0
20260504044514 42 213 0.0 2.0 0.00 0.00 0.00 64 1009.1
20260504043011 42 179 1.0 7.0 0.00 0.00 0.00 64 1009.1
20260504041607 41 211 0.0 3.0 0.00 0.00 0.00 60 1009.1
20260504040007 40 197 0.0 5.0 0.00 0.00 0.00 59 1009.1
20260504034507 40 229 0.0 4.0 0.00 0.00 0.00 62 1009.1
20260504033003 40 298 0.0 0.0 0.00 0.00 0.00 66 1009.1
20260504031503 41 298 0.0 0.0 0.00 0.00 0.00 59 1009.1
20260504030003 41 298 0.0 0.0 0.00 0.00 0.00 54 1009.1
20260504024507 41 298 0.0 3.0 0.00 0.00 0.00 53 1009.2
20260504023002 41 316 0.0 6.0 0.00 0.00 0.00 51 1009.3
20260504021502 40 316 0.0 3.0 0.00 0.00 0.00 54 1009.3
20260504020100 40 309 0.0 7.0 0.00 0.00 0.00 54 1009.4
20260504014600 40 316 0.0 0.0 0.00 0.00 0.00 56 1009.2
20260504013100 40 349 0.0 0.0 0.00 0.00 0.00 57 1009.1
20260504011558 40 355 0.0 0.0 0.00 0.00 0.00 56 1009.0
20260504010059 41 355 0.0 0.0 0.00 0.00 0.00 56 1008.7
20260504004558 42 355 0.0 0.0 0.00 0.00 0.00 55 1008.4
20260504003057 43 355 0.0 0.0 0.00 0.00 0.00 52 1008.3
20260504001557 44 336 0.0 0.0 0.00 0.00 0.00 52 1008.1
20260504000136 45 332 0.0 0.0 0.00 0.00 0.00 48 1008.0
20260503234557 45 301 0.0 0.0 0.00 0.00 0.00 47 1007.8
20260503233055 46 300 0.0 6.0 0.00 0.00 0.00 46 1007.7
20260503231555 46 360 0.0 6.0 0.00 0.00 0.00 46 1007.6
20260503230057 47 262 6.0 11.0 0.00 0.00 0.00 44 1007.5
20260503224554 47 328 3.0 8.0 0.00 0.00 0.00 46 1007.6
20260503223054 47 316 4.0 13.0 0.00 0.00 0.00 44 1007.5
20260503221554 48 257 6.0 17.0 0.00 0.00 0.00 44 1007.5
20260503220053 48 319 7.0 18.0 0.00 0.00 0.00 43 1007.4
20260503214551 47 304 6.0 16.0 0.00 0.00 0.00 49 1007.3
20260503213049 46 278 2.0 9.0 0.00 0.00 0.00 49 1007.3
20260503211548 46 331 8.0 13.0 0.00 0.00 0.00 48 1007.4
20260503210048 45 271 8.0 15.0 0.00 0.00 0.00 50 1007.4
20260503204552 46 323 4.0 17.0 0.00 0.00 0.00 50 1007.3
20260503203046 46 296 5.0 14.0 0.00 0.00 0.00 50 1007.4
20260503201546 45 302 8.0 21.0 0.00 0.00 0.00 48 1007.4
20260503200045 47 235 6.0 15.0 0.00 0.00 0.00 48 1007.3
20260503194546 45 257 6.0 18.0 0.00 0.00 0.00 51 1007.6
20260503193042 46 291 6.0 18.0 0.00 0.00 0.00 49 1007.6
20260503191540 46 266 4.0 14.0 0.00 0.00 0.00 53 1007.6
20260503190040 45 329 7.0 18.0 0.00 0.00 0.00 49 1007.9
20260503184557 45 281 8.0 20.0 0.00 0.00 0.00 49 1007.8
20260503183042 45 311 7.0 16.0 0.00 0.00 0.00 49 1007.8
20260503181540 45 283 7.0 16.0 0.00 0.00 0.00 49 1007.7
20260503180040 45 301 9.0 21.0 0.00 0.00 0.00 49 1007.7
20260503174537 45 240 6.0 14.0 0.00 0.00 0.00 55 1007.7